Weather History for Pittsfield, MA

Change the Weather History Date:

Wednesday, January 9, 2013

  Actual Average Record
Temperature  
Mean Temperature 28 °F 20 °F  
Max Temperature 41 °F 29 °F 60 °F (1930)
Min Temperature 14 °F 12 °F -20 °F (1968)
Degree Days  
Heating Degree Days 37 45  
Month to date heating degree days 386 398  
Since 1 July heating degree days 2922 3236  
Cooling Degree Days 0 0  
Month to date cooling degree days 0 0  
Year to date cooling degree days 0 0  
Moisture  
Dew Point 22 °F    
Average Humidity 74    
Maximum Humidity 100    
Minimum Humidity 48    
Precipitation  
Precipitation 0.00 in 0.09 in 1.52 in (1935)
Month to date precipitation T 1.03  
Year to date precipitation T 1.03  
Sea Level Pressure  
Sea Level Pressure 30.22 in    
Wind  
Wind Speed 6 mph (SW)    
Max Wind Speed 28 mph    
Max Gust Speed 35 mph    
Visibility 7 miles    
Events      
T = Trace of Precipitation, MM = Missing Value Source: NWS Daily Summary

Daily Weather History Graph

Daily Weather History Graph

Search for Another Location

Airport:

Trip Planner

Search our weather history database for the weather conditions in past years. The results will help you decide how hot, cold, wet, or windy it might be!

Date:

Astronomy

Jan. 09, 2013 Rise Set
Actual Time 7:21 AM EST 4:39 PM EST
Civil Twilight 6:50 AM EST 5:10 PM EST
Nautical Twilight 6:15 AM EST 5:45 PM EST
Astronomical Twilight 5:41 AM EST 6:19 PM EST
Moon 4:58 AM EST (1/9) 2:37 PM EST (1/9)
Length of Visible Light 10h 20m
Length of Day
9h 17m
Waning Crescent, 6% of the Moon is Illuminated
Jan 9
Waning Crescent
Jan 11
New
Jan 18
First Quarter
Jan 26
Full
Feb 3
Last Quarter

Hourly Weather History & Observations

Time (EST) Temp. Windchill Dew Point Humidity Pressure Visibility Wind Dir Wind Speed Gust Speed Precip Events Conditions
12:54 AM 23.0 °F - 19.9 °F 88% 30.35 in 5.0 mi Calm Calm - N/A   Clear
1:54 AM 19.9 °F - 18.0 °F 92% 30.35 in 5.0 mi Calm Calm - N/A   Clear
2:54 AM 19.0 °F - 17.1 °F 92% 30.35 in 4.0 mi Calm Calm - N/A   Clear
3:54 AM 17.1 °F - 15.1 °F 92% 30.35 in 5.0 mi Calm Calm - N/A   Clear
4:54 AM 17.1 °F - 14.0 °F 88% 30.34 in 4.0 mi Calm Calm - N/A   Clear
5:54 AM 17.1 °F - 15.1 °F 92% 30.36 in 4.0 mi Calm Calm - N/A   Clear
6:54 AM 15.1 °F - 10.9 °F 84% 30.38 in 5.0 mi Calm Calm - N/A   Clear
7:54 AM 15.1 °F - 12.0 °F 88% 30.38 in 4.0 mi Calm Calm - N/A   Clear
8:54 AM 17.1 °F - 15.1 °F 92% 30.35 in 4.0 mi Calm Calm - N/A   Clear
9:54 AM 21.9 °F - 21.0 °F 96% 30.35 in 5.0 mi Calm Calm - N/A   Clear
10:54 AM 25.0 °F - 21.0 °F 85% 30.28 in 6.0 mi Calm Calm - N/A   Clear
11:54 AM 28.0 °F 22.8 °F 23.0 °F 81% 30.22 in 6.0 mi SW 4.6 mph - N/A   Haze
12:54 PM 33.1 °F - 24.1 °F 70% 30.22 in 9.0 mi Calm Calm - N/A   Overcast
1:54 PM 36.0 °F 32.1 °F 25.0 °F 64% 30.13 in 10.0 mi SSE 4.6 mph - N/A   Overcast
2:54 PM 37.9 °F 32.1 °F 28.0 °F 68% 30.09 in 10.0 mi SSW 8.1 mph - N/A   Overcast
3:54 PM 39.0 °F 34.0 °F 28.9 °F 67% 30.06 in 10.0 mi South 6.9 mph - N/A   Overcast
4:54 PM 39.9 °F 33.4 °F 30.0 °F 68% 30.01 in 10.0 mi SSW 10.4 mph - N/A   Mostly Cloudy
5:54 PM 37.9 °F 31.5 °F 30.0 °F 73% 30.04 in 10.0 mi WSW 9.2 mph - N/A   Clear
6:54 PM 37.9 °F 31.5 °F 30.0 °F 73% 30.06 in 10.0 mi SW 9.2 mph - N/A   Clear
7:54 PM 37.9 °F 30.9 °F 30.0 °F 73% 30.06 in 10.0 mi SW 10.4 mph - N/A   Clear
9:54 PM 39.9 °F 31.1 °F 25.0 °F 55% 30.10 in 10.0 mi West 17.3 mph 27.6 mph N/A   Mostly Cloudy
10:54 PM 39.9 °F 30.5 °F 21.9 °F 49% 30.09 in 10.0 mi West 19.6 mph 32.2 mph N/A   Overcast
11:54 PM 39.9 °F 29.7 °F 24.1 °F 53% 30.10 in 10.0 mi West 23.0 mph 33.4 mph N/A   Overcast